Regional Weather Roundup
Issued by NWS

Current Version | Previous Version | Text Only | Print | Product List | Glossary On
Versions: 1 2 3 4 5 6 7 8 9 10 11 12 13 14 15 16 17 18 19 20 21 22 23 24 25 26 27 28 29 30 31 32 33 34 35 36 37 38 39 40 41 42 43 44 45 46 47 48 49 50
000
ASPQ40 PGUM 260612
RWRPQ
WEATHER ROUNDUP FOR THE MARIANAS AND MICRONESIA
NATIONAL WEATHER SERVICE TIYAN GU
400 PM CHST TUE SEP 26 2017

GUZ001>004-260700-
MARIANA ISLANDS-

CITY           SKY/WX    TMP DP  RH WIND       PRES   REMARKS
GUAM AIRPORT   MOSUNNY   88  79  74 NE13      29.79S HX 102
ANDERSEN AFB   PTSUNNY   84  77  79 E13       29.79F HX  94
ROTA AIRPORT   MOSUNNY   84  77  79 NE17      29.79S HX  94
TINIAN AP      MOSUNNY   86  77  74 NE14      29.77S HX  97
SAIPAN AP      PTSUNNY   88  79  74 E13       29.78S HX 102

$$

PMZ161-260700-
REPUBLIC OF PALAU-

CITY           SKY/WX    TMP DP  RH WIND       PRES   REMARKS
KOROR AP       CLOUDY    77  75  94 N3        29.86S
KOROR WSO      LGT RAIN  79  77  94 NW6       29.86S

$$

PMZ171>174-260700-
FEDERATED STATES OF MICRONESIA-

CITY           SKY/WX    TMP DP  RH WIND       PRES   REMARKS
YAP AIRPORT    LGT RAIN  75  73  94 VRB5      29.77F
CHUUK AP       LGT RAIN  81  77  89 VRB6      29.77R
POHNPEI AP     NOT AVBL
POHNPEI WSO    CLOUDY    82  75  78 SE5       29.81R
KOSRAE AP      NOT AVBL

$$

PMZ181-260700-
REPUBLIC OF THE MARSHALL ISLANDS-

CITY           SKY/WX    TMP DP  RH WIND       PRES   REMARKS
KWAJALEIN AP   CLEAR     81  73  78 SW5       29.81S
MAJURO AP      NOT AVBL
MAJURO WSO     NOT AVBL

$$




USA.gov is the U.S. government's official web portal to all federal, state and local government web resources and services.